Location: Casa Rossa
(45.2389°N, 12.2056°E)
Time: 23:51:36
(UTC+00:00)

Cosmos 1656 - Pass Details

Date: 14 July 2020
Orbit: 799 x 848 km, 71.1° (Epoch: 14 August)

Event Time Altitude Azimuth Distance (km) Brightness Sun altitude
Rises 00:45:21 0° 333° (NNW) 3,317 7.4 -20.2°
Reaches altitude 10° 00:47:46 10° 334° (NNW) 2,383 6.6 -20.0°
Maximum altitude 00:53:13 87° 245° (WSW) 809 3.5 -19.6°
Enters shadow 00:56:35 24° 158° (SSE) 1,607 4.8 -19.4°
